User: anonymous   Login
Location: DARK SKY Beskydy - Park tmavé oblohy, www.darkskybeskydy.cz
(49.4926°N, 18.5016°E)
Time: 09:36:52
(UTC+01:00)
Language:

Tiros 1 despin weight - Orbit

View from above orbital plane
View from above orbital plane
View from above satellite
View from above satellite

Ground track
Ground track

The orbit data is extracted from the following two-line orbital elements,

1 00115U 60002D   24055.62848909  .00004628  00000-0  51339-3 0  9991
2 00115  48.1620 263.2672 0031119  79.8817 280.5606 14.88434424392017
Epoch (UTC): 24 February 2024 15:05:01
Eccentricity: 0.0031119
inclination: 48.1620°
perigee height: 581 km
apogee height: 624 km
right ascension of ascending node: 263.2672°
argument of perigee: 79.8817°
revolutions per day: 14.88434424
mean anomaly at epoch: 280.5606°
orbit number at epoch: 39201

The dashed part of the orbit path shows where the satellite is in the earth's shadow,  

DLR